BREEZE-M DEB, 37203

Orbit data source: Space-Track

BREEZE-M DEB, 37203 is space debris in HEO originally from a launch on Fri, 14 Mar 2008 UTC launched from the Tyuratam Missile And Space Complex (TTMTR). Debris objects in space refer to the collection of defunct objects orbiting the Earth. Examples of debris include non-operational satellites, rocket bodies, and fragments generated from explosions, collisions, or faulty payload assembly.

Loading next visibility...
Identifier
37203, 2008-011H
Orbit
HEO
Country
Flag of CISCIS
Related business
Manufacturer
Unknown
Mission
Spacecraft
Bus & Motor
Unknown
Mass
Unknown
Launch date (UTC)
2008-03-14 (18 years ago)
Launch vehicle
Unknown
Launch site
Tyuratam Missile And Space Complex (TTMTR)
Object type
Payload
Rocket body
Debris
Shape & HBR
Unknown shape, 0.2 m
Radar Cross Section
Medium (>0.1 m² and <1 m²)

Expand to show TLE details & history
Last TLE update: 1 year ago

TLE from 1 year ago
0 BREEZE-M DEB
1 37203U 08011H   25120.00853971 -.00000080  00000-0  00000-0 0  9997
2 37203  48.3052  16.5204 6178080 281.0316  19.2407  3.23496838169395
Epoch: 2025-04-30T00:12Z
TLE epoch observation values (Epoch: 2025-04-30T00:12:17.830Z)
Latitude
0.00011°
Longitude
155.26395°
Altitude
4,329.859 km
Speed
7.336 km/s
True Right ascension
01h 06m 09s
True Declination
0° 00' 00"
Sunlit
Object was in daylight at epoch
Visualization orbit readout
Latitude
Unknown
Longitude
Unknown
Altitude
Unknown
Speed
Unknown
Apparent Right ascension
Unknown
Apparent Declination
Unknown
Sunlit
N/A
Visualization observer readout
Local Sidereal Time
08:10:58
Azimuth
Unknown
Elevation
Unknown
Doppler factor
Unknown
Orbital elements
Apogee altitude
24,865.841 km
Perigee altitude
1,002.96 km
Semi-major axis
19,312.538 km
Eccentricity
0.61781
Inclination
48.3052°
RAAN
16.5204°
Arg. of periapsis
281.0316°
True anomaly
79.03551°
Mean anomaly
19.2407°
Eccentric anomaly
43.69351°
Mean motion
0.80869 °/min
Orbital period
445.16 mins
BSTAR
0
Loading maneuver chart data...
Computing Atmospheric mass density...
Loading historical data...
Loading historical data...
Loading historical data...
Loading historical data...
Loading historical data...
Loading historical data...
Loading historical data...

Documentation

Showing up to 5 results
|